Regional Weather Roundup
Issued by NWS

Home | Current Version | Previous Version | Text Only | Print | Product List | Glossary Off
Versions: 1 2 3 4 5 6 7 8 9 10 11 12 13 14 15 16 17 18 19 20 21 22 23 24 25 26 27 28 29 30 31 32 33 34 35 36 37 38 39 40 41 42 43 44 45 46 47 48 49 50

072
ASUS44 KJAN 250910
RWRMS

MISSISSIPPI HOURLY WEATHER ROUNDUP
NATIONAL WEATHER SERVICE JACKSON MS
400 AM CDT SAT OCT 25 2014

NOTE: "FAIR: INDICATES FEW OR NO CLOUDS BELOW 12,000 FEET WITH NO
SIGNIFICANT WEATHER AND/OR OBSTRUCTIONS TO VISIBILITY.

MSZ001>002-007>008-010>013-018>021-025>028-034>036-251000-
NORTHWEST MISSISSIPPI

CITY           SKY/WX    TMP DP  RH WIND       PRES   REMARKS
CLARKSDALE     FAIR      57  55  94 S3        30.10S
CLEVELAND      FAIR      53  53  99 CALM      30.10S
GREENWOOD      CLEAR     48  47  96 CALM      30.12R
GREENVILLE     CLEAR     55  53  93 CALM      30.10S
GRENADA          N/A    N/A N/A N/A MISG        N/A
OLIVE BRANCH   CLEAR     52  52 100 CALM      30.08F
OXFORD         FAIR      48  48 100 CALM      30.11F FOG
TUNICA         SUNNY     52  52 100 SE6       30.09S FOG
$$

MSZ003>006-009-014>017-022>024-029>033-037>039-251000-
NORTHEAST MISSISSIPPI

CITY           SKY/WX    TMP DP  RH WIND       PRES   REMARKS
COLUMBUS AFB   CLEAR     45  44  96 CALM      30.10S
CORINTH        FAIR      46  45  93 CALM      30.09S
GOLDN TRIANGLE CLEAR    N/A N/A N/A W3        30.09S
STARKVILLE     FAIR      45  45 100 CALM      30.10S
TUPELO         CLEAR     50  48  93 CALM      30.10S
$$

MSZ040-058-251000-
CENTRAL MISSISSIPPI

CITY           SKY/WX    TMP DP  RH WIND       PRES   REMARKS
JACKSON INTL   CLEAR     47  45  93 CALM      30.11F
JACKSON HAWKNS CLEAR     50  47  89 CALM      30.11F
MERIDIAN KEY   CLEAR     44  42  93 CALM      30.10S
MERIDIAN NAS   CLEAR     46  44  93 W3        30.10S FOG
RAYMOND        FAIR      45  41  87 MISG      30.11F
VICKSBURG      CLEAR     45  43  93 CALM      30.11F
$$

MSZ059>079-251000-
SOUTH MISSISSIPPI

CITY           SKY/WX    TMP DP  RH WIND       PRES   REMARKS
BROOKHAVEN     FAIR      46  45  93 CALM      30.13S
COLUMBIA         N/A    N/A N/A N/A MISG        N/A
HATTIESBURG    CLEAR     48  46  93 CALM      30.11S
MCCOMB         CLEAR     50  45  83 N5        30.11S
NATCHEZ        CLEAR     46  43  87 CALM      30.13S
PINE BELT      CLEAR     48  45  87 CALM      30.11S
$$

MSZ080>082-251000-
COASTAL MISSISSIPPI

CITY           SKY/WX    TMP DP  RH WIND       PRES   REMARKS
BILOXI         CLEAR     56  47  73 N7        30.07F
PASCAGOULA     CLEAR     43  41  93 CALM      30.08S
GULFPORT       CLEAR     50  46  86 CALM      30.08S
$$



USA.gov is the U.S. government's official web portal to all federal, state and local government web resources and services.